N5SRF Weather Reports


time (UTC)temp
F
wind
direction
speed
knots
gust
knots
rain 1hr
in
rain 24hr
in
rain mn
in
humidity
%
barometer
mb
20260507064808 64 28 3.5 5.2 0.00 0.00 0.00 95 1018.1
20260507064306 64 65 1.7 1.7 0.00 0.00 0.00 95 1018.1
20260507063804 64 74 1.7 1.7 0.00 0.00 0.00 95 1017.9
20260507063300 64 50 1.7 2.6 0.00 0.00 0.00 95 1018.1
20260507062757 64 13 3.5 4.3 0.00 0.00 0.00 95 1017.9
20260507062254 65 26 2.6 4.3 0.00 0.00 0.00 95 1018.1
20260507061753 65 14 1.7 1.7 0.00 0.00 0.00 95 1018.1
20260507061250 65 9 4.3 6.1 0.00 0.00 0.00 95 1018.0
20260507060748 65 335 3.5 4.3 0.00 0.00 0.00 95 1018.7
20260507060244 65 42 3.5 4.3 0.00 0.00 0.00 95 1018.4
20260507055741 65 5 4.3 5.2 0.00 0.02 0.02 95 1018.5
20260507055236 65 65 2.6 4.3 0.00 0.02 0.02 95 1018.1
20260507054733 65 15 2.6 4.3 0.00 0.02 0.02 94 1017.8
20260507054229 65 303 2.6 2.6 0.00 0.02 0.02 94 1017.9
20260507053727 65 325 5.2 6.1 0.00 0.02 0.02 94 1018.0
20260507053225 66 340 2.6 4.3 0.00 0.02 0.02 94 1018.0
20260507052723 66 89 0.9 0.9 0.00 0.02 0.02 93 1017.8
20260507052219 66 358 5.2 7.0 0.00 0.02 0.02 93 1017.9
20260507051717 66 354 3.5 4.3 0.00 0.02 0.02 93 1018.1
20260507051209 66 342 4.3 4.3 0.00 0.02 0.02 93 1017.8
20260507050705 66 3 4.3 5.2 0.00 0.02 0.02 93 1018.2
20260507050202 66 349 1.7 2.6 0.00 0.02 0.02 93 1018.1
20260507045659 67 22 3.5 5.2 0.00 0.02 0.02 93 1017.7
20260507045156 67 2 2.6 4.3 0.00 0.02 0.02 93 1017.7
20260507044652 67 31 2.6 4.3 0.00 0.02 0.02 92 1017.8
20260507044148 67 323 3.5 4.3 0.00 0.02 0.02 93 1018.0
20260507043645 67 24 1.7 2.6 0.00 0.02 0.02 93 1017.5
20260507043142 67 344 3.5 4.3 0.00 0.02 0.02 92 1017.5
20260507042638 68 2 3.5 6.1 0.00 0.02 0.02 92 1017.3
20260507042133 68 39 1.7 2.6 0.00 0.02 0.02 92 1017.8
20260507041630 68 323 2.6 2.6 0.00 0.02 0.02 92 1017.9
20260507041121 68 7 4.3 7.0 0.00 0.02 0.02 93 1017.9
20260507040619 68 323 4.3 5.2 0.00 0.02 0.02 92 1017.9
20260507040115 68 273 2.6 4.3 0.00 0.02 0.02 92 1017.8
20260507035610 68 275 1.7 1.7 0.00 0.02 0.02 92 1017.5
20260507035101 68 352 1.7 1.7 0.00 0.02 0.02 92 1017.3
20260507034558 68 250 0.9 1.7 0.00 0.02 0.02 92 1017.1
20260507034056 69 1 2.6 4.3 0.00 0.02 0.02 92 1017.3
20260507033554 69 335 2.6 2.6 0.00 0.02 0.02 92 1017.5
20260507033051 69 309 2.6 2.6 0.00 0.02 0.02 92 1017.2
20260507032548 69 303 4.3 6.1 0.00 0.02 0.02 92 1017.1
20260507032044 69 314 5.2 6.1 0.00 0.02 0.02 92 1017.1
20260507031541 69 309 1.7 1.7 0.00 0.02 0.02 92 1016.5
20260507031038 69 25 2.6 2.6 0.00 0.02 0.02 93 1016.6
20260507030534 69 343 2.6 4.3 0.00 0.02 0.02 93 1016.4
20260507030033 68 138 1.7 1.7 0.00 0.02 0.02 93 1016.5
20260507025529 68 293 1.7 1.7 0.00 0.02 0.02 94 1016.3
20260507025027 68 296 2.6 2.6 0.00 0.02 0.02 93 1016.4
20260507024524 68 272 2.6 2.6 0.00 0.02 0.02 93 1016.4
20260507024021 68 324 2.6 2.6 0.00 0.02 0.02 93 1016.2
20260507023516 68 296 1.7 1.7 0.00 0.02 0.02 93 1016.0
20260507023015 68 326 1.7 2.6 0.00 0.02 0.02 93 1015.9
20260507022510 68 352 2.6 2.6 0.00 0.02 0.02 93 1015.9
20260507022006 68 266 2.6 2.6 0.00 0.02 0.02 93 1015.8
20260507021501 69 290 2.6 4.3 0.00 0.02 0.02 93 1015.8
20260507020959 69 322 2.6 4.3 0.00 0.02 0.02 93 1015.6
20260507020456 69 327 2.6 2.6 0.00 0.02 0.02 93 1015.6
20260507015952 69 263 1.7 1.7 0.00 0.02 0.02 92 1015.5
20260507015451 69 328 2.6 4.3 0.00 0.02 0.02 92 1015.5
20260507014948 69 276 1.7 1.7 0.00 0.02 0.02 92 1015.3
20260507014444 69 271 2.6 2.6 0.00 0.02 0.02 92 1015.4
20260507013940 69 301 1.7 1.7 0.00 0.02 0.02 92 1015.1
20260507013437 70 293 1.7 2.6 0.00 0.02 0.02 92 1015.2
20260507012935 70 270 1.7 1.7 0.00 0.02 0.02 92 1015.0
20260507012431 70 205 0.9 0.9 0.00 0.02 0.02 92 1015.1
20260507011928 70 276 1.7 2.6 0.00 0.02 0.02 91 1015.0
20260507011426 70 319 2.6 2.6 0.00 0.02 0.02 91 1014.8
20260507010925 71 336 2.6 2.6 0.00 0.02 0.02 91 1014.8
20260507010421 71 323 3.5 5.2 0.00 0.02 0.02 91 1014.9
20260507005918 71 311 3.5 5.2 0.00 0.02 0.02 91 1014.7
20260507005415 71 289 1.7 1.7 0.00 0.02 0.02 90 1014.5
20260507004911 72 335 3.5 4.3 0.00 0.02 0.02 90 1014.5
20260507004408 72 327 3.5 4.3 0.00 0.02 0.02 90 1014.4
20260507003906 72 307 1.7 1.7 0.00 0.02 0.02 90 1014.3
20260507003401 73 343 6.1 7.0 0.00 0.02 0.02 90 1014.1
20260507002856 73 337 3.5 4.3 0.00 0.02 0.02 90 1013.9
20260507002353 73 309 2.6 2.6 0.00 0.02 0.02 90 1014.0
20260507001850 73 278 2.6 4.3 0.00 0.02 0.02 89 1014.0
20260507001347 74 305 3.5 4.3 0.00 0.02 0.02 89 1013.8
20260507000843 74 315 1.7 1.7 0.00 0.02 0.02 90 1013.9
20260507000339 75 264 1.7 2.6 0.00 0.02 0.02 90 1014.0
20260506235835 75 207 1.7 1.7 0.00 0.02 0.02 90 1013.8
20260506235332 75 256 0.9 1.7 0.00 0.02 0.02 90 1013.7
20260506234823 75 316 5.2 6.1 0.00 0.02 0.02 91 1013.4
20260506234321 75 330 3.5 5.2 0.00 0.02 0.02 91 1013.4
20260506233818 75 292 6.1 7.0 0.00 0.02 0.02 91 1013.6
20260506233314 76 320 3.5 5.2 0.00 0.02 0.02 91 1013.3
20260506232811 77 332 6.1 7.8 0.00 0.02 0.02 90 1013.3
20260506232307 79 347 7.0 7.8 0.00 0.02 0.02 88 1013.1
20260506231803 83 346 3.5 4.3 0.00 0.02 0.02 87 1012.9
20260506231301 84 123 0.9 0.9 0.00 0.02 0.02 89 1012.8
20260506230758 83 125 0.0 0.9 0.00 0.02 0.02 89 1012.8
20260506230255 83 125 0.0 0.0 0.00 0.02 0.02 89 1012.8
20260506225751 82 125 0.9 0.9 0.00 0.02 0.02 89 1012.7
20260506225249 82 125 0.0 0.0 0.00 0.02 0.02 90 1012.6
20260506224744 82 144 0.0 0.9 0.00 0.02 0.02 90 1012.5
20260506224242 82 137 0.0 0.0 0.00 0.02 0.02 90 1012.5
20260506223738 83 134 0.0 0.9 0.00 0.02 0.02 89 1012.5
20260506223234 83 138 0.0 0.0 0.00 0.02 0.02 88 1012.6
20260506222731 84 129 0.0 0.0 0.00 0.02 0.02 88 1012.6
20260506222226 84 139 0.0 0.0 0.00 0.02 0.02 88 1012.6
20260506221724 84 150 0.0 0.0 0.00 0.02 0.02 88 1012.6
20260506221222 84 150 0.9 0.9 0.00 0.02 0.02 88 1012.4
20260506220719 84 166 0.9 0.9 0.00 0.02 0.02 87 1012.3
20260506220214 84 139 0.0 0.0 0.00 0.02 0.02 87 1012.4
20260506215711 84 140 0.9 0.9 0.00 0.02 0.02 87 1012.4
20260506215206 83 139 0.9 1.7 0.00 0.02 0.02 86 1012.6
20260506214703 83 176 0.0 0.0 0.00 0.02 0.02 87 1012.5
20260506214200 83 148 0.0 0.0 0.00 0.02 0.02 87 1012.5
20260506213659 85 102 1.7 2.6 0.00 0.02 0.02 86 1012.5
20260506213156 85 149 0.9 0.9 0.00 0.02 0.02 84 1012.7
20260506212653 86 154 0.9 0.9 0.00 0.02 0.02 83 1012.5
20260506212148 85 163 0.9 0.9 0.00 0.02 0.02 84 1012.4
20260506211644 85 65 1.7 1.7 0.00 0.02 0.02 84 1012.8
20260506211141 84 190 0.9 0.9 0.00 0.02 0.02 85 1012.7
20260506210638 84 126 1.7 1.7 0.00 0.02 0.02 85 1012.8
20260506210134 85 141 0.9 0.9 0.00 0.02 0.02 83 1012.7
20260506205631 84 208 0.0 0.0 0.00 0.02 0.02 85 1012.7
20260506205126 84 127 0.9 0.9 0.00 0.02 0.02 86 1012.7
20260506204625 84 190 0.0 0.0 0.00 0.02 0.02 85 1013.0
20260506204121 84 119 0.9 0.9 0.00 0.02 0.02 86 1012.9
20260506203620 83 178 0.9 0.9 0.00 0.02 0.02 87 1013.0
20260506203116 83 161 0.0 0.0 0.00 0.02 0.02 88 1013.0
20260506202614 82 155 0.0 0.0 0.00 0.02 0.02 88 1013.1
20260506202110 82 149 0.0 0.0 0.00 0.02 0.02 89 1013.3
20260506201607 82 157 0.0 0.9 0.00 0.02 0.02 90 1013.2
20260506201104 81 164 0.9 0.9 0.00 0.02 0.02 90 1013.2
20260506200600 81 181 0.0 0.0 0.00 0.02 0.02 91 1013.4
20260506200057 81 159 0.0 0.0 0.00 0.02 0.02 91 1013.5
20260506195554 80 157 0.0 0.0 0.00 0.02 0.02 90 1013.2
20260506195050 80 156 0.0 0.0 0.00 0.02 0.02 90 1013.4
20260506194548 80 170 0.9 0.9 0.00 0.02 0.02 90 1013.4
20260506194044 80 151 0.0 0.0 0.00 0.02 0.02 90 1013.4
20260506193541 80 119 0.9 0.9 0.00 0.02 0.02 90 1013.4
20260506193038 80 165 0.0 0.0 0.00 0.02 0.02 91 1013.4
20260506192535 80 158 0.9 1.7 0.00 0.02 0.02 90 1013.6
20260506192030 81 127 1.7 1.7 0.00 0.02 0.02 90 1013.4
20260506191528 82 139 0.0 0.0 0.00 0.02 0.02 89 1013.6
20260506191024 82 116 1.7 1.7 0.00 0.02 0.02 89 1013.6
20260506190521 82 138 0.0 0.0 0.00 0.02 0.02 89 1013.5
20260506190019 81 236 0.9 1.7 0.00 0.02 0.02 88 1013.5
20260506185515 81 241 0.9 1.7 0.00 0.02 0.02 89 1013.7
20260506185011 81 217 0.0 0.9 0.00 0.02 0.02 90 1013.8
20260506184509 81 93 0.9 0.9 0.00 0.02 0.02 92 1013.8
20260506184006 80 206 1.7 1.7 0.00 0.02 0.02 93 1013.8
20260506183501 80 139 1.7 1.7 0.00 0.02 0.02 96 1014.0
20260506182959 80 147 1.7 1.7 0.00 0.02 0.02 95 1014.2
20260506182456 80 148 0.0 0.0 0.00 0.02 0.02 97 1014.3
20260506181954 80 154 0.9 0.9 0.00 0.02 0.02 96 1014.4
20260506181451 79 163 0.0 0.0 0.00 0.02 0.02 96 1014.8
20260506180947 80 163 0.9 0.9 0.00 0.02 0.02 95 1014.8
20260506180444 79 163 0.0 0.0 0.07 0.02 0.02 95 1014.8
20260506175941 80 163 0.0 0.0 0.12 0.02 0.02 94 1014.9
20260506175437 79 163 0.0 0.0 0.05 0.01 0.01 93 1015.2
20260506174928 80 164 0.0 0.0 0.00 0.00 0.00 92 1015.2
20260506174426 80 163 0.0 0.0 0.00 0.00 0.00 91 1015.3
20260506173918 80 163 0.0 0.0 0.00 0.00 0.00 90 1015.4
20260506173414 80 163 0.0 0.0 0.00 0.00 0.00 89 1015.4
20260506172912 80 163 0.0 0.0 0.00 0.00 0.00 89 1015.4
20260506172408 81 164 0.0 0.0 0.00 0.00 0.00 88 1015.3
20260506171905 81 164 0.0 0.0 0.00 0.00 0.00 87 1015.5
20260506171402 81 164 0.0 0.0 0.00 0.00 0.00 86 1015.7
20260506170900 82 164 0.0 0.9 0.00 0.00 0.00 86 1015.7
20260506170355 82 178 0.0 0.9 0.00 0.00 0.00 85 1015.4
20260506165850 82 173 1.7 1.7 0.00 0.00 0.00 85 1015.7
20260506165347 82 183 2.6 2.6 0.00 0.00 0.00 85 1015.4
20260506164843 83 172 0.9 0.9 0.00 0.00 0.00 84 1015.5
20260506164340 83 158 0.0 0.0 0.00 0.00 0.00 84 1015.3
20260506163838 83 177 1.7 1.7 0.00 0.00 0.00 84 1015.4
20260506163332 83 175 0.9 0.9 0.00 0.00 0.00 84 1015.0
20260506162828 82 172 1.7 1.7 0.00 0.00 0.00 84 1015.1
20260506162325 83 180 1.7 1.7 0.00 0.00 0.00 83 1014.9
20260506161822 83 180 2.6 2.6 0.00 0.00 0.00 84 1014.8
20260506161320 83 185 0.9 1.7 0.00 0.00 0.00 85 1014.9
20260506160812 82 122 2.6 4.3 0.00 0.00 0.00 86 1014.8
20260506160308 81 119 1.7 2.6 0.00 0.00 0.00 87 1014.6
20260506155807 81 155 2.6 4.3 0.00 0.00 0.00 87 1014.8
20260506155306 81 164 1.7 2.6 0.00 0.00 0.00 88 1014.9
20260506153415 80 117 0.9 1.7 0.00 0.00 0.00 90 1014.6
20260506152913 80 156 0.9 1.7 0.00 0.00 0.00 90 1014.8
20260506152409 79 178 0.0 0.9 0.00 0.00 0.00 92 1014.9
20260506151908 79 205 2.6 4.3 0.00 0.00 0.00 92 1015.0
20260506151404 78 177 0.0 0.0 0.00 0.00 0.00 93 1015.0
20260506150902 78 146 2.6 2.6 0.00 0.00 0.00 93 1014.8
20260506150358 78 187 0.0 0.9 0.00 0.00 0.00 93 1014.8
20260506145855 78 193 0.0 0.9 0.00 0.00 0.00 93 1014.6
20260506145351 78 162 0.9 0.9 0.00 0.00 0.00 93 1014.6
20260506144849 78 112 1.7 1.7 0.00 0.00 0.00 93 1014.5
20260506144345 78 186 0.9 0.9 0.00 0.00 0.00 94 1014.4
20260506143844 78 111 0.9 2.6 0.00 0.00 0.00 94 1014.3
20260506143340 78 194 0.9 0.9 0.00 0.00 0.00 94 1014.4
20260506142839 78 146 0.0 0.0 0.00 0.00 0.00 95 1014.3
20260506142336 78 180 1.7 2.6 0.00 0.00 0.00 95 1014.4
20260506141834 77 212 0.9 0.9 0.00 0.00 0.00 95 1014.5
20260506141332 77 174 1.7 1.7 0.00 0.00 0.00 96 1014.3
20260506140830 77 66 1.7 2.6 0.00 0.00 0.00 96 1014.3
20260506140327 77 174 1.7 2.6 0.00 0.00 0.00 96 1014.1
20260506135824 77 178 0.9 0.9 0.00 0.00 0.00 97 1014.1
20260506135320 76 165 0.9 0.9 0.00 0.00 0.00 97 1014.3
20260506134817 76 190 0.9 0.9 0.00 0.00 0.00 97 1014.6
20260506134313 76 142 2.6 2.6 0.00 0.00 0.00 98 1014.3
20260506133810 76 166 0.0 0.0 0.00 0.00 0.00 98 1014.4
20260506133307 76 162 1.7 1.7 0.00 0.00 0.00 98 1014.5
20260506132804 76 177 0.0 0.0 0.00 0.00 0.00 98 1014.4
20260506132301 75 171 0.0 0.9 0.00 0.00 0.00 98 1014.4
20260506131759 75 154 0.9 0.9 0.00 0.00 0.00 98 1014.6
20260506131254 75 153 0.9 1.7 0.00 0.00 0.00 98 1014.6
20260506130752 75 178 0.0 0.9 0.00 0.00 0.00 99 1014.6
20260506130248 75 178 0.0 0.0 0.00 0.00 0.00 99 1014.5
20260506125747 75 176 0.9 0.9 0.00 0.00 0.00 99 1014.4
20260506125244 75 171 0.0 0.0 0.00 0.00 0.00 99 1014.4
20260506124742 75 173 0.0 0.0 0.00 0.00 0.00 99 1014.2
20260506124240 75 173 0.0 0.0 0.00 0.00 0.00 99 1014.3
20260506123737 75 173 0.0 0.0 0.00 0.00 0.00 99 1014.3
20260506123236 75 173 0.0 0.0 0.00 0.00 0.00 99 1014.2
20260506122732 75 173 0.9 0.9 0.00 0.00 0.00 99 1014.1
20260506122229 75 174 0.0 0.0 0.00 0.00 0.00 99 1014.2
20260506121728 75 174 0.0 0.0 0.00 0.00 0.00 99 1014.2
20260506121224 74 173 0.0 0.0 0.00 0.00 0.00 99 1014.0
20260506120722 74 174 0.0 0.0 0.00 0.00 0.00 99 1014.1
20260506120219 74 182 0.0 0.0 0.00 0.00 0.00 99 1013.9
20260506115717 74 184 0.9 1.7 0.00 0.00 0.00 98 1014.0
20260506115215 74 193 0.0 0.0 0.00 0.00 0.00 98 1013.8
20260506114712 74 205 0.0 0.0 0.00 0.00 0.00 98 1013.8
20260506114209 74 187 0.0 0.0 0.00 0.00 0.00 98 1013.5
20260506113708 74 177 0.0 0.0 0.00 0.00 0.00 98 1013.6
20260506113205 74 177 0.9 0.9 0.00 0.00 0.00 98 1013.7
20260506112701 74 188 0.0 0.0 0.00 0.00 0.00 98 1013.4
20260506112159 74 188 0.0 0.0 0.00 0.00 0.00 98 1013.4
20260506111656 74 180 0.0 0.0 0.00 0.00 0.00 97 1013.5
20260506111154 74 183 0.0 0.0 0.00 0.00 0.00 97 1013.4
20260506110651 74 183 0.0 0.0 0.00 0.00 0.00 97 1013.2
20260506110148 74 183 0.0 0.0 0.00 0.00 0.00 97 1013.4
20260506105644 74 195 0.0 0.0 0.00 0.00 0.00 97 1013.3
20260506105141 75 182 0.0 0.0 0.00 0.00 0.00 97 1013.1
20260506104640 75 179 0.9 0.9 0.00 0.00 0.00 97 1013.0
20260506104137 75 108 1.7 1.7 0.00 0.00 0.00 97 1013.1
20260506103634 75 165 0.9 0.9 0.00 0.00 0.00 97 1013.2
20260506103131 75 158 2.6 4.3 0.00 0.00 0.00 97 1013.0
20260506102629 75 180 0.0 0.0 0.00 0.00 0.00 96 1013.1
20260506102126 75 189 0.9 1.7 0.00 0.00 0.00 96 1013.2
20260506101623 75 188 0.9 1.7 0.00 0.00 0.00 96 1013.1
20260506101120 75 193 0.9 0.9 0.00 0.00 0.00 96 1013.2
20260506100618 75 176 0.9 0.9 0.00 0.00 0.00 97 1013.0
20260506100116 75 284 1.7 1.7 0.00 0.00 0.00 97 1013.1
20260506095615 75 167 0.9 0.9 0.00 0.00 0.00 96 1013.1
20260506095111 75 193 0.9 0.9 0.00 0.00 0.00 96 1012.8
20260506094608 75 90 0.0 0.0 0.00 0.00 0.00 96 1013.0
20260506094106 75 156 1.7 1.7 0.00 0.00 0.00 97 1013.0
20260506093604 75 194 1.7 1.7 0.00 0.00 0.00 97 1012.8
20260506093101 75 236 0.9 1.7 0.00 0.00 0.00 97 1012.6
20260506092559 75 152 5.2 6.1 0.00 0.00 0.00 97 1012.7
20260506092055 75 129 0.9 0.9 0.00 0.00 0.00 97 1012.5
20260506091554 75 169 0.0 0.9 0.00 0.00 0.00 97 1012.5
20260506091051 75 142 0.9 1.7 0.00 0.00 0.00 97 1012.6
20260506090549 75 191 0.0 0.9 0.00 0.00 0.00 97 1012.7
20260506090045 75 162 0.9 0.9 0.00 0.00 0.00 97 1012.7
20260506085542 75 161 2.6 4.3 0.00 0.00 0.00 97 1013.0
20260506085038 75 178 0.9 1.7 0.00 0.00 0.00 97 1012.8
20260506084535 75 165 0.9 1.7 0.00 0.00 0.00 97 1012.7
20260506084031 75 175 2.6 2.6 0.00 0.00 0.00 97 1012.9
20260506083529 75 156 2.6 4.3 0.00 0.00 0.00 97 1012.7
20260506083026 75 144 2.6 2.6 0.00 0.00 0.00 97 1012.8
20260506082523 75 136 5.2 7.0 0.00 0.00 0.00 97 1012.7
20260506082018 75 152 0.9 0.9 0.00 0.00 0.00 97 1012.5
20260506081517 75 123 0.9 0.9 0.00 0.00 0.00 97 1012.5
20260506081014 75 146 1.7 4.3 0.00 0.00 0.00 97 1012.5
20260506080511 75 161 2.6 4.3 0.00 0.00 0.00 97 1012.5
20260506073455 75 177 1.7 1.7 0.00 0.00 0.00 96 1012.5
20260506072952 75 244 0.9 0.9 0.00 0.00 0.00 96 1013.0
20260506072449 75 163 0.9 1.7 0.00 0.00 0.00 96 1012.8
20260506071947 75 183 0.0 0.0 0.00 0.00 0.00 96 1013.2
20260506071444 75 189 1.7 2.6 0.00 0.00 0.00 96 1013.2
20260506070941 75 181 0.0 0.9 0.00 0.00 0.00 96 1013.4
20260506070438 75 159 2.6 2.6 0.00 0.00 0.00 96 1013.5